DW1549 Fauske NO current weather conditions

sailwx.info

Wind from 197 at 0 knots gusting 2

Air temperature 10.0° C
Dewpoint 7.9° C

Last reported at 2016-Sep-25 04:48 UTC.
Time now 2016-Sep-25 05:33 UTC

Location: N 67°16' E 015°25'.
View on Google Maps.

See reports from other nearby stations

  
Tides and Currents Weather Stations Pressure Air Temp Water Temp Dewpoint Dewpoint Depression Visibility Wind Speed Wind Dir Waves Ship Positions
date/time (UTC)wind fromknots sea level pressurealtimeterstation pressurevisibilityair tempwater tempwave heightnotes
2016-Sep-25 04:48 197 0 gusting 2 10.0
2016-Sep-25 04:38 181 1 gusting 5 10.0
2016-Sep-25 04:28 170 0 gusting 5 10.6
2016-Sep-25 04:18 189 4 gusting 10 10.6
2016-Sep-25 04:08 195 6 gusting 10 10.6
2016-Sep-25 03:58 170 4 gusting 7 10.6
2016-Sep-25 03:48 153 0 gusting 4 10.6
2016-Sep-25 03:38 153 10.6
2016-Sep-25 03:28 153 10.6
2016-Sep-25 03:18 153 0 gusting 4 10.6
2016-Sep-25 03:08 153 0 gusting 4 10.6
2016-Sep-25 02:58 163 10.6
2016-Sep-25 02:48 165 10.6
2016-Sep-25 02:38 165 10.6
2016-Sep-25 02:28 166 11.1
2016-Sep-25 02:18 166 11.1
2016-Sep-25 02:08 161 0 gusting 6 11.1
2016-Sep-25 01:58 166 2 gusting 8 11.1
2016-Sep-25 01:48 155 2 gusting 6 11.1
2016-Sep-25 01:38 141 0 gusting 6 11.1
2016-Sep-25 01:28 141 2 gusting 6 10.6
2016-Sep-25 01:18 149 2 gusting 5 10.6
2016-Sep-25 01:08 220 0 gusting 4 10.6
2016-Sep-25 00:58 149 10.0
2016-Sep-25 00:48 145 0 gusting 6 10.0
2016-Sep-25 00:38 099 1 gusting 4 10.0
2016-Sep-25 00:28 096 0 gusting 4 9.4
2016-Sep-25 00:18 094 9.4
2016-Sep-25 00:08 094 0 gusting 2 10.0
2016-Sep-24 23:58 094 0 gusting 2 9.4
2016-Sep-24 23:48 094 9.4
2016-Sep-24 23:38 080 1 gusting 4 9.4
2016-Sep-24 23:28 076 9.4
2016-Sep-24 23:18 075 9.4
2016-Sep-24 23:08 074 9.4
2016-Sep-24 22:58 074 8.9
2016-Sep-24 22:48 074 8.9
2016-Sep-24 22:38 074 8.9
2016-Sep-24 22:28 085 8.9
2016-Sep-24 22:18 085 8.9
2016-Sep-24 22:08 085 8.9
2016-Sep-24 21:58 085 8.9
2016-Sep-24 21:48 101 0 gusting 2 8.9
2016-Sep-24 21:38 114 8.9
2016-Sep-24 21:28 114 8.9
2016-Sep-24 21:18 114 8.9
2016-Sep-24 21:08 114 8.9
2016-Sep-24 20:58 116 8.9
2016-Sep-24 20:48 116 8.9
2016-Sep-24 20:38 116 8.9
2016-Sep-24 20:28 116 8.9
2016-Sep-24 20:18 116 8.9
2016-Sep-24 20:08 116 8.9
2016-Sep-24 19:58 116 0 gusting 4 8.3
2016-Sep-24 19:48 118 0 gusting 2 8.3
2016-Sep-24 19:38 118 8.3
2016-Sep-24 19:28 118 8.3
2016-Sep-24 19:18 118 8.3
2016-Sep-24 19:08 118 8.3
2016-Sep-24 18:58 118 8.3
2016-Sep-24 18:48 118 7.8
2016-Sep-24 18:38 118 7.8
2016-Sep-24 18:28 118 7.8
2016-Sep-24 18:18 118 8.3
2016-Sep-24 18:08 118 8.3
2016-Sep-24 17:58 118 8.3
2016-Sep-23 19:38 118 7 gusting 14 12.2
2016-Sep-23 19:28 124 7 gusting 15 12.8
2016-Sep-23 19:18 116 7 gusting 17 12.8
2016-Sep-23 19:08 124 10 gusting 17 12.8
2016-Sep-23 18:58 097 8 gusting 15 12.8
2016-Sep-23 18:48 131 6 gusting 14 12.8
2016-Sep-23 18:38 121 9 gusting 15 12.8
2016-Sep-23 18:28 124 8 gusting 15 12.8
2016-Sep-23 18:18 118 8 gusting 14 12.8
2016-Sep-23 18:08 112 9 gusting 17 12.8
2016-Sep-23 17:58 107 7 gusting 18 12.8
2016-Sep-23 17:48 118 8 gusting 14 12.8
2016-Sep-23 17:38 101 7 gusting 14 12.8
2016-Sep-23 17:28 104 7 gusting 13 12.8
2016-Sep-23 17:18 130 7 gusting 13 12.8
2016-Sep-23 17:08 119 7 gusting 13 12.8
2016-Sep-23 16:58 124 11 gusting 14 12.8
2016-Sep-23 16:48 130 10 gusting 15 12.8
2016-Sep-23 16:38 129 8 gusting 13 13.3
2016-Sep-23 16:28 126 8 gusting 15 13.3
2016-Sep-23 16:18 126 8 gusting 14 13.3
2016-Sep-23 16:08 115 6 gusting 13 13.3
2016-Sep-23 15:58 118 8 gusting 13 13.9
2016-Sep-23 15:48 139 7 gusting 13 13.9
2016-Sep-23 15:38 090 8 gusting 15 13.9
2016-Sep-23 15:28 137 7 gusting 13 13.9
2016-Sep-23 15:18 123 8 gusting 15 13.9
2016-Sep-23 15:08 132 9 gusting 17 13.9
2016-Sep-23 14:58 119 10 gusting 18 14.4
2016-Sep-23 14:48 128 10 gusting 17 14.4
2016-Sep-23 14:38 123 8 gusting 17 15.0
2016-Sep-23 14:28 114 9 gusting 17 15.0
2016-Sep-23 14:18 135 8 gusting 17 15.0
2016-Sep-23 14:08 131 9 gusting 14 15.0
2016-Sep-23 13:58 142 10 gusting 17 15.0
2016-Sep-23 13:48 137 7 gusting 15 15.0
2016-Sep-23 13:38 127 8 gusting 15 15.0
2016-Sep-23 13:28 134 10 gusting 18 15.0
2016-Sep-23 13:18 126 12 gusting 19 15.0
2016-Sep-23 13:08 131 11 gusting 17 15.0
2016-Sep-23 12:58 142 9 gusting 15 15.0
2016-Sep-23 12:48 111 10 gusting 17 15.0
2016-Sep-23 12:38 106 10 gusting 17 15.6
2016-Sep-23 12:28 127 8 gusting 14 15.6
2016-Sep-23 12:18 122 6 gusting 13 15.6
2016-Sep-23 12:08 107 6 gusting 14 15.0
2016-Sep-23 11:58 114 6 gusting 17 14.4
2016-Sep-23 11:48 125 8 gusting 13 14.4
2016-Sep-23 11:38 125 10 gusting 18 14.4
2016-Sep-23 11:28 131 9 gusting 19 14.4
2016-Sep-23 11:18 131 9 gusting 18 15.0
2016-Sep-23 11:08 127 9 gusting 18 15.0
2016-Sep-23 10:58 143 10 gusting 17 15.0
2016-Sep-23 10:48 130 11 gusting 20 14.4
2016-Sep-23 10:38 113 11 gusting 22 15.0
2016-Sep-23 10:28 109 11 gusting 17 15.6
2016-Sep-23 10:18 135 10 gusting 18 15.6
2016-Sep-23 10:08 132 9 gusting 20 15.0
2016-Sep-23 09:58 130 10 gusting 17 15.0
2016-Sep-23 09:48 115 8 gusting 19 15.0
2016-Sep-23 09:38 117 12 gusting 17 15.0
2016-Sep-23 09:28 120 6 gusting 17 15.0
2016-Sep-23 09:18 114 7 gusting 15 15.0
2016-Sep-23 09:08 120 6 gusting 17 14.4
2016-Sep-23 08:58 116 9 gusting 17 14.4
2016-Sep-23 08:48 112 4 gusting 17 13.3
2016-Sep-23 08:38 139 11 gusting 18 13.3
2016-Sep-23 08:28 124 9 gusting 17 13.3
2016-Sep-23 08:18 126 7 gusting 13 13.3
2016-Sep-23 08:08 122 6 gusting 13 14.4
2016-Sep-23 07:58 125 7 gusting 14 14.4
2016-Sep-23 07:48 121 6 gusting 12 14.4
2016-Sep-23 07:38 124 5 gusting 12 13.3
2016-Sep-23 07:28 134 4 gusting 10 13.3
2016-Sep-23 07:18 134 7 gusting 13 12.8
2016-Sep-23 07:08 118 4 gusting 10 12.8
2016-Sep-23 06:58 113 5 gusting 11 13.3
2016-Sep-23 06:48 134 9 gusting 14 13.3
2016-Sep-23 06:38 143 6 gusting 11 12.8
2016-Sep-23 06:28 151 5 gusting 11 13.3
2016-Sep-23 06:18 161 3 gusting 10 12.8
2016-Sep-23 06:08 129 4 gusting 10 12.8
2016-Sep-23 05:58 149 7 gusting 12 12.2
2016-Sep-23 05:48 141 2 gusting 7 11.1
2016-Sep-23 05:38 153 10.6
2016-Sep-23 05:28 153 0 gusting 5 10.6
2016-Sep-23 05:18 236 10.0
2016-Sep-23 05:08 236 10.0